• Em Portugal
  • Lista de países
  • Para 7 dias
  • Temperatura da água
  • Mapas de satélite
  • Mapa do tempo
  • Widgets de tempo
  • user-avatar
    Iniciar Sessão

    Previsão horária em Ouahigouya

    Hoje, 18 Julho, Quarta-feira

    Tempo Temperatura Precipitação Vento Pressão Humidade
    00:00 +28°C° 0 mm 3 m/s 730 mmHg 70%
    01:00 +28°C° 0,6 mm 3 m/s 730 mmHg 70%
    02:00 +28°C° 0,6 mm 3 m/s 730 mmHg 70%
    03:00 +28°C° 0,6 mm 3 m/s 730 mmHg 71%
    04:00 +28°C° 0 mm 3 m/s 730 mmHg 71%
    05:00 +28°C° 0 mm 4 m/s 730 mmHg 72%
    06:00 +28°C° 0 mm 4 m/s 730 mmHg 72%
    07:00 +29°C° 0 mm 5 m/s 730 mmHg 67%
    08:00 +30°C° 0 mm 5 m/s 730 mmHg 63%
    09:00 +32°C° 0 mm 6 m/s 731 mmHg 58%
    10:00 +33°C° 0 mm 5 m/s 731 mmHg 53%
    11:00 +35°C° 0 mm 5 m/s 730 mmHg 47%
    12:00 +36°C° 0 mm 5 m/s 730 mmHg 42%
    13:00 +37°C° 0 mm 4 m/s 730 mmHg 39%
    14:00 +37°C° 0 mm 3 m/s 729 mmHg 37%
    15:00 +38°C° 0 mm 2 m/s 729 mmHg 34%
    16:00 +38°C° 0 mm 2 m/s 729 mmHg 33%
    17:00 +37°C° 0 mm 1 m/s 728 mmHg 33%
    18:00 +37°C° 0 mm 1 m/s 728 mmHg 33%
    19:00 +37°C° 0 mm 1 m/s 729 mmHg 34%
    20:00 +38°C° 0 mm 2 m/s 729 mmHg 35%
    21:00 +37°C° 0 mm 2 m/s 729 mmHg 35%
    22:00 +37°C° 0 mm 3 m/s 730 mmHg 38%
    23:00 +36°C° 0 mm 4 m/s 730 mmHg 41%

    Amanhã, 19 Julho, Quinta-feira

    Tempo Temperatura Precipitação Vento Pressão Humidade
    00:00 +36°C° 0 mm 4 m/s 730 mmHg 43%
    01:00 +34°C° 0 mm 5 m/s 730 mmHg 48%
    02:00 +33°C° 0 mm 5 m/s 729 mmHg 53%
    03:00 +32°C° 0 mm 6 m/s 729 mmHg 58%
    04:00 +32°C° 0 mm 6 m/s 729 mmHg 60%
    05:00 +30°C° 0 mm 6 m/s 729 mmHg 62%
    06:00 +30°C° 0 mm 5 m/s 729 mmHg 63%
    07:00 +32°C° 0 mm 6 m/s 729 mmHg 61%
    08:00 +32°C° 0 mm 6 m/s 730 mmHg 58%
    09:00 +33°C° 0 mm 6 m/s 730 mmHg 55%
    10:00 +34°C° 0 mm 6 m/s 730 mmHg 51%
    11:00 +36°C° 0 mm 6 m/s 730 mmHg 47%
    12:00 +38°C° 0 mm 6 m/s 730 mmHg 43%
    13:00 +38°C° 0 mm 6 m/s 730 mmHg 41%
    14:00 +39°C° 0 mm 5 m/s 729 mmHg 40%
    15:00 +39°C° 0 mm 5 m/s 728 mmHg 39%
    16:00 +38°C° 0 mm 4 m/s 728 mmHg 39%
    17:00 +37°C° 0 mm 4 m/s 728 mmHg 40%
    18:00 +37°C° 0 mm 4 m/s 728 mmHg 41%
    19:00 +36°C° 0,1 mm 5 m/s 728 mmHg 44%
    20:00 +35°C° 0,1 mm 5 m/s 729 mmHg 47%
    21:00 +34°C° 0,1 mm 6 m/s 729 mmHg 50%
    22:00 +33°C° 3,7 mm 5 m/s 729 mmHg 56%
    23:00 +32°C° 3,7 mm 5 m/s 729 mmHg 62%

    Depois de amanhã, 20 Julho, Sexta-feira

    Tempo Temperatura Precipitação Vento Pressão Humidade
    00:00 +30°C° 3,7 mm 5 m/s 729 mmHg 67%
    01:00 +29°C° 5,7 mm 5 m/s 729 mmHg 69%
    02:00 +29°C° 5,7 mm 5 m/s 729 mmHg 71%
    03:00 +29°C° 5,7 mm 5 m/s 729 mmHg 73%
    04:00 +29°C° 0 mm 5 m/s 729 mmHg 73%
    05:00 +29°C° 0 mm 4 m/s 729 mmHg 72%
    06:00 +29°C° 0 mm 4 m/s 730 mmHg 71%
    07:00 +29°C° 0,3 mm 3 m/s 730 mmHg 67%
    08:00 +30°C° 0,3 mm 3 m/s 731 mmHg 62%
    09:00 +31°C° 0,3 mm 3 m/s 731 mmHg 58%
    10:00 +33°C° 0 mm 4 m/s 731 mmHg 54%
    11:00 +34°C° 0 mm 4 m/s 730 mmHg 50%
    12:00 +35°C° 0 mm 4 m/s 730 mmHg 47%
    13:00 +36°C° 0 mm 3 m/s 729 mmHg 43%
    14:00 +37°C° 0 mm 3 m/s 729 mmHg 40%
    15:00 +38°C° 0 mm 2 m/s 728 mmHg 36%
    16:00 +38°C° 0 mm 2 m/s 728 mmHg 36%
    17:00 +38°C° 0 mm 2 m/s 727 mmHg 36%
    18:00 +38°C° 0 mm 2 m/s 727 mmHg 36%
    19:00 +37°C° 0 mm 2 m/s 728 mmHg 39%
    20:00 +36°C° 0 mm 2 m/s 728 mmHg 41%
    21:00 +35°C° 0 mm 1 m/s 729 mmHg 44%
    22:00 +35°C° 0,1 mm 2 m/s 729 mmHg 46%
    23:00 +34°C° 0,1 mm 3 m/s 729 mmHg 49%

    21 Julho, Sábado

    Tempo Temperatura Precipitação Vento Pressão Humidade
    00:00 +34°C° 0,1 mm 4 m/s 729 mmHg 51%
    01:00 +33°C° 0 mm 4 m/s 729 mmHg 54%
    02:00 +33°C° 0 mm 4 m/s 729 mmHg 57%
    03:00 +32°C° 0 mm 4 m/s 729 mmHg 59%
    04:00 +32°C° 0 mm 4 m/s 729 mmHg 62%
    05:00 +30°C° 0 mm 5 m/s 729 mmHg 64%
    06:00 +30°C° 0 mm 5 m/s 729 mmHg 67%
    07:00 +32°C° 0,5 mm 5 m/s 729 mmHg 65%
    08:00 +32°C° 0,5 mm 5 m/s 730 mmHg 63%
    09:00 +33°C° 0,5 mm 5 m/s 730 mmHg 60%
    10:00 +34°C° 0,3 mm 5 m/s 730 mmHg 55%
    11:00 +36°C° 0,3 mm 4 m/s 730 mmHg 49%
    12:00 +37°C° 0,3 mm 4 m/s 730 mmHg 43%
    13:00 +38°C° 0 mm 3 m/s 729 mmHg 40%
    14:00 +38°C° 0 mm 2 m/s 728 mmHg 37%
    15:00 +39°C° 0 mm 1 m/s 728 mmHg 34%
    16:00 +39°C° 0 mm 2 m/s 728 mmHg 34%
    17:00 +39°C° 0 mm 2 m/s 728 mmHg 35%
    18:00 +38°C° 0 mm 3 m/s 728 mmHg 35%
    19:00 +37°C° 0,1 mm 4 m/s 729 mmHg 41%
    20:00 +36°C° 0,1 mm 6 m/s 729 mmHg 46%
    21:00 +34°C° 0,1 mm 7 m/s 730 mmHg 52%
    22:00 +33°C° 0,5 mm 7 m/s 730 mmHg 55%
    23:00 +32°C° 0,5 mm 6 m/s 730 mmHg 59%

    22 Julho, Domingo

    Tempo Temperatura Precipitação Vento Pressão Humidade
    00:00 +30°C° 0,5 mm 6 m/s 730 mmHg 63%
    01:00 +30°C° 0,5 mm 6 m/s 729 mmHg 63%
    02:00 +30°C° 0,5 mm 6 m/s 729 mmHg 64%
    03:00 +29°C° 0,5 mm 6 m/s 729 mmHg 64%
    04:00 +29°C° 0,3 mm 5 m/s 729 mmHg 66%
    05:00 +29°C° 0,3 mm 5 m/s 729 mmHg 67%
    06:00 +29°C° 0,3 mm 5 m/s 730 mmHg 69%
    07:00 +29°C° 0 mm 6 m/s 730 mmHg 66%
    08:00 +30°C° 0 mm 6 m/s 730 mmHg 64%
    09:00 +32°C° 0 mm 6 m/s 731 mmHg 62%
    10:00 +33°C° 0 mm 6 m/s 731 mmHg 56%
    11:00 +35°C° 0 mm 6 m/s 731 mmHg 50%
    12:00 +36°C° 0 mm 5 m/s 730 mmHg 45%
    13:00 +37°C° 0 mm 4 m/s 730 mmHg 42%
    14:00 +38°C° 0 mm 4 m/s 729 mmHg 39%
    15:00 +38°C° 0 mm 3 m/s 729 mmHg 36%
    16:00 +38°C° 0 mm 3 m/s 729 mmHg 36%
    17:00 +38°C° 0 mm 3 m/s 729 mmHg 36%
    18:00 +38°C° 0 mm 3 m/s 729 mmHg 36%
    19:00 +37°C° 0 mm 3 m/s 729 mmHg 38%
    20:00 +37°C° 0 mm 3 m/s 730 mmHg 40%
    21:00 +36°C° 0 mm 3 m/s 731 mmHg 42%
    22:00 +36°C° 0 mm 4 m/s 730 mmHg 44%
    23:00 +35°C° 0 mm 4 m/s 730 mmHg 46%

    23 Julho, Segunda-feira

    Tempo Temperatura Precipitação Vento Pressão Humidade
    00:00 +34°C° 0 mm 4 m/s 730 mmHg 48%
    01:00 +34°C° 0 mm 4 m/s 730 mmHg 49%
    02:00 +33°C° 0 mm 4 m/s 729 mmHg 51%
    03:00 +33°C° 0 mm 4 m/s 729 mmHg 52%
    04:00 +33°C° 0 mm 4 m/s 729 mmHg 55%
    05:00 +32°C° 0 mm 4 m/s 729 mmHg 57%
    06:00 +32°C° 0 mm 4 m/s 730 mmHg 60%
    07:00 +32°C° 0 mm 5 m/s 730 mmHg 58%
    08:00 +33°C° 0 mm 5 m/s 730 mmHg 56%
    09:00 +34°C° 0 mm 6 m/s 731 mmHg 54%
    10:00 +35°C° 0 mm 6 m/s 730 mmHg 49%
    11:00 +38°C° 0 mm 6 m/s 730 mmHg 45%
    12:00 +39°C° 0 mm 5 m/s 730 mmHg 40%
    13:00 +40°C° 0 mm 5 m/s 729 mmHg 38%
    14:00 +41°C° 0 mm 4 m/s 728 mmHg 35%
    15:00 +40°C° 0 mm 3 m/s 728 mmHg 32%
    16:00 +40°C° 0 mm 3 m/s 728 mmHg 33%
    17:00 +40°C° 0 mm 3 m/s 728 mmHg 34%
    18:00 +39°C° 0 mm 3 m/s 728 mmHg 34%
    19:00 +38°C° 0,4 mm 3 m/s 729 mmHg 39%
    20:00 +37°C° 0,4 mm 4 m/s 729 mmHg 43%
    21:00 +36°C° 0,4 mm 4 m/s 729 mmHg 47%
    22:00 +35°C° 0,9 mm 5 m/s 729 mmHg 52%
    23:00 +34°C° 0,9 mm 5 m/s 729 mmHg 57%
    Mostrar mais